KX4BI Weather Reports


Display with metric or nautical units.
time (UTC)temp
F
wind
direction
speed
MPH
gust
MPH
rain 1hr
in
rain 24hr
in
rain mn
in
humidity
%
barometer
mb
20260906120029 73 225 1.0 3.0 0.02 0.02 0.02 91 1013.7
20260906115506 73 113 1.0 4.0 0.02 0.02 0.02 91 1013.8
20260906115006 72 89 2.0 5.0 0.02 0.02 0.02 91 1014.0
20260906114515 72 86 0.0 5.0 0.02 0.02 0.02 91 1013.9
20260906114006 72 256 2.0 4.0 0.02 0.02 0.02 91 1013.9
20260906113508 72 263 2.0 4.0 0.02 0.02 0.02 91 1014.0
20260906113017 72 311 1.0 8.0 0.01 0.01 0.01 90 1014.1
20260906112509 72 96 4.0 8.0 0.01 0.01 0.01 90 1014.0
20260906112012 73 96 3.0 4.0 0.00 0.00 0.00 89 1014.0
20260906111529 73 312 0.0 2.0 0.00 0.00 0.00 89 1013.8
20260906111013 73 312 0.0 3.0 0.00 0.00 0.00 88 1013.6
20260906110515 73 326 1.0 6.0 0.00 0.00 0.00 88 1013.9
20260906110028 73 34 2.0 6.0 0.00 0.00 0.00 88 1014.1
20260906105515 73 338 2.0 6.0 0.00 0.00 0.00 88 1014.2
20260906105015 73 291 1.0 2.0 0.00 0.00 0.00 89 1014.2
20260906104531 73 305 1.0 1.0 0.00 0.00 0.00 88 1014.0
20260906104006 73 306 0.0 1.0 0.00 0.00 0.00 87 1014.0
20260906103506 74 359 0.0 1.0 0.00 0.00 0.00 85 1014.0
20260906103016 74 359 0.0 2.0 0.00 0.00 0.00 84 1014.0
20260906102511 74 340 0.0 2.0 0.00 0.00 0.00 84 1014.1
20260906102010 74 321 1.0 3.0 0.00 0.00 0.00 84 1014.3
20260906101520 74 347 1.0 3.0 0.00 0.00 0.00 84 1014.4
20260906101011 74 84 0.0 3.0 0.00 0.00 0.00 84 1014.2
20260906100514 74 108 0.0 3.0 0.00 0.00 0.00 83 1014.2
20260906100028 74 333 2.0 3.0 0.00 0.00 0.00 83 1014.4
20260906095514 74 15 0.0 3.0 0.00 0.00 0.00 83 1014.5
20260906095019 74 27 1.0 3.0 0.00 0.00 0.00 83 1014.5
20260906094530 74 352 1.0 3.0 0.00 0.00 0.00 84 1014.3
20260906094016 74 105 0.0 3.0 0.00 0.00 0.00 84 1014.2
20260906093514 74 84 1.0 3.0 0.00 0.00 0.00 84 1014.1
20260906093033 74 99 1.0 2.0 0.00 0.00 0.00 85 1014.1
20260906092506 74 18 0.0 2.0 0.00 0.00 0.00 85 1014.2
20260906092008 74 76 1.0 2.0 0.00 0.00 0.00 85 1014.1
20260906091517 74 76 1.0 2.0 0.00 0.00 0.00 85 1013.8
20260906091010 74 84 0.0 0.0 0.00 0.00 0.00 84 1013.7
20260906090511 75 84 0.0 2.0 0.00 0.00 0.00 83 1013.7
20260906090026 75 84 0.0 2.0 0.00 0.00 0.00 83 1013.9
20260906085515 75 68 0.0 2.0 0.00 0.00 0.00 82 1014.0
20260906085011 75 76 1.0 4.0 0.00 0.00 0.00 83 1013.9
20260906084528 75 75 2.0 5.0 0.00 0.00 0.00 83 1013.7
20260906084017 75 101 3.0 6.0 0.00 0.00 0.00 83 1013.6
20260906083517 75 99 3.0 8.0 0.00 0.00 0.00 82 1013.5
20260906083034 76 101 3.0 8.0 0.00 0.00 0.00 82 1013.5
20260906082516 76 105 5.0 8.0 0.00 0.00 0.00 83 1013.4
20260906082016 76 115 5.0 11.0 0.00 0.00 0.00 83 1013.5
20260906081515 76 101 4.0 12.0 0.00 0.00 0.00 82 1013.5
20260906081008 76 121 8.0 12.0 0.00 0.00 0.00 81 1013.6
20260906080511 76 96 6.0 8.0 0.00 0.00 0.00 83 1013.7
20260906080029 76 92 3.0 6.0 0.00 0.00 0.00 84 1013.7
20260906075512 76 72 2.0 6.0 0.00 0.00 0.00 84 1013.6
20260906075012 76 84 3.0 9.0 0.00 0.00 0.00 84 1013.5
20260906074528 77 104 3.0 12.0 0.00 0.00 0.00 84 1013.4
20260906074013 76 76 6.0 12.0 0.00 0.00 0.00 84 1013.5
20260906073516 76 73 5.0 8.0 0.00 0.00 0.00 85 1013.3
20260906073029 76 82 4.0 7.0 0.00 0.00 0.00 86 1013.6
20260906072517 76 112 5.0 7.0 0.00 0.00 0.00 86 1013.3
20260906072016 75 73 5.0 7.0 0.00 0.00 0.00 88 1013.5
20260906071531 75 68 1.0 2.0 0.00 0.00 0.00 88 1013.2
20260906071018 75 116 0.0 1.0 0.00 0.00 0.00 89 1013.1
20260906070518 75 116 0.0 1.0 0.00 0.00 0.00 89 1013.2
20260906070006 75 116 0.0 1.0 0.00 0.00 0.00 90 1013.1
20260906065504 74 116 0.0 1.0 0.00 0.00 0.00 91 1013.1
20260906065004 74 117 0.0 1.0 0.00 0.00 0.00 91 1013.1
20260906064507 74 117 0.0 1.0 0.00 0.00 0.00 91 1013.1
20260906064006 74 117 0.0 1.0 0.00 0.00 0.00 91 1013.1
20260906063503 74 117 0.0 1.0 0.00 0.00 0.00 91 1013.1
20260906063003 74 117 0.0 1.0 0.00 0.00 0.00 90 1013.0
20260906062504 75 84 0.0 1.0 0.00 0.00 0.00 89 1013.0
20260906062005 75 84 0.0 2.0 0.00 0.00 0.00 90 1013.0
20260906061504 75 84 1.0 2.0 0.00 0.00 0.00 90 1013.0
20260906061004 75 99 1.0 2.0 0.00 0.00 0.00 90 1012.9
20260906060507 75 108 1.0 2.0 0.00 0.00 0.00 88 1012.9
20260906060006 76 311 0.0 0.0 0.00 0.00 0.00 87 1012.8
20260906055506 76 311 0.0 0.0 0.00 0.00 0.00 87 1012.7
20260906055004 76 311 0.0 0.0 0.00 0.00 0.00 87 1012.7
20260906054506 76 311 0.0 0.0 0.00 0.00 0.00 87 1012.6
20260906054004 77 311 0.0 0.0 0.00 0.00 0.00 87 1012.6
20260906053507 77 311 0.0 0.0 0.00 0.00 0.00 87 1012.6
20260906053005 77 311 0.0 0.0 0.00 0.00 0.00 86 1012.7
20260906052504 77 311 0.0 0.0 0.00 0.00 0.00 86 1012.8
20260906052005 77 311 0.0 0.0 0.00 0.00 0.00 86 1012.9
20260906051506 77 311 0.0 0.0 0.00 0.00 0.00 85 1012.9
20260906051004 77 311 0.0 0.0 0.00 0.00 0.00 85 1013.0
20260906050505 77 311 0.0 1.0 0.00 0.00 0.00 85 1013.0
20260906050009 78 310 0.0 1.0 0.00 0.00 0.00 85 1013.1
20260906045504 78 8 0.0 1.0 0.00 0.00 0.00 84 1013.1
20260906045008 78 8 0.0 2.0 0.00 0.00 0.00 84 1013.2
20260906044510 78 8 1.0 2.0 0.00 0.00 0.00 84 1013.2
20260906044008 78 8 0.0 2.0 0.00 0.00 0.00 84 1013.1
20260906043504 78 8 0.0 2.0 0.00 0.00 0.00 84 1013.2
20260906043009 78 316 0.0 1.0 0.00 0.00 0.00 84 1013.2
20260906042504 78 316 0.0 1.0 0.00 0.00 0.00 84 1013.2
20260906042005 78 316 0.0 1.0 0.00 0.00 0.00 84 1013.2
20260906041509 78 316 0.0 1.0 0.00 0.00 0.00 84 1013.3
20260906041008 78 283 1.0 1.0 0.00 0.00 0.00 84 1013.3
20260906040504 78 283 0.0 1.0 0.00 0.00 0.00 84 1013.2
20260906040009 78 283 0.0 1.0 0.00 0.00 0.00 85 1013.2
20260906035504 78 282 0.0 1.0 0.00 0.00 0.00 86 1013.3
20260906035006 77 282 0.0 2.0 0.00 0.00 0.00 86 1013.2
20260906034510 78 282 0.0 2.0 0.00 0.00 0.00 86 1013.3
20260906034004 77 115 0.0 2.0 0.00 0.00 0.00 86 1013.3
20260906033505 78 115 0.0 2.0 0.00 0.00 0.00 85 1013.4
20260906033018 79 30 0.0 2.0 0.00 0.00 0.00 84 1013.3
20260906032504 78 20 0.0 7.0 0.00 0.00 0.00 84 1013.3
20260906032007 78 83 0.0 7.0 0.00 0.00 0.00 84 1013.3
20260906031509 78 97 4.0 6.0 0.00 0.00 0.00 84 1013.3
20260906031007 79 335 0.0 1.0 0.00 0.00 0.00 81 1013.1
20260906030506 79 335 0.0 1.0 0.00 0.00 0.00 82 1013.0
20260906030007 79 335 0.0 1.0 0.00 0.00 0.00 82 1012.9
20260906025504 79 335 0.0 1.0 0.00 0.00 0.00 82 1012.9
20260906025004 80 335 0.0 1.0 0.00 0.00 0.00 80 1012.9
20260906024506 80 335 1.0 1.0 0.00 0.00 0.00 79 1012.7
20260906024005 80 334 0.0 1.0 0.00 0.00 0.00 80 1012.6
20260906023505 79 334 0.0 1.0 0.00 0.00 0.00 81 1012.5
20260906023012 79 334 1.0 1.0 0.00 0.00 0.00 81 1012.5
20260906022510 79 23 0.0 1.0 0.00 0.00 0.00 81 1012.5
20260906022006 79 23 0.0 0.0 0.00 0.00 0.00 81 1012.5
20260906021508 79 23 0.0 0.0 0.00 0.00 0.00 81 1012.3
20260906021007 79 24 0.0 1.0 0.00 0.00 0.00 80 1012.3
20260906020506 80 24 0.0 1.0 0.00 0.00 0.00 80 1012.2
20260906020011 80 24 1.0 1.0 0.00 0.00 0.00 79 1012.0
20260906015505 81 352 0.0 1.0 0.00 0.00 0.00 76 1011.9
20260906015007 81 352 0.0 1.0 0.00 0.00 0.00 76 1011.9
20260906014509 81 352 0.0 1.0 0.00 0.00 0.00 76 1011.9
20260906014004 81 352 0.0 1.0 0.00 0.00 0.00 76 1012.0
20260906013504 81 352 0.0 0.0 0.00 0.00 0.00 76 1012.1
20260906013010 81 352 0.0 0.0 0.00 0.00 0.00 77 1012.1
20260906012507 82 352 0.0 0.0 0.00 0.00 0.00 76 1011.9
20260906012005 82 352 0.0 1.0 0.00 0.00 0.00 76 1012.0
20260906011512 82 352 0.0 1.0 0.00 0.00 0.00 75 1011.9
20260906011007 82 352 0.0 0.0 0.00 0.00 0.00 75 1011.9
20260906010506 83 352 0.0 0.0 0.00 0.00 0.00 74 1011.9
20260906010010 83 352 0.0 1.0 0.00 0.00 0.00 73 1011.9
20260906005504 83 352 0.0 1.0 0.00 0.00 0.00 73 1011.9
20260906005007 84 352 0.0 1.0 0.00 0.00 0.00 72 1011.9
20260906004516 84 352 1.0 1.0 0.00 0.00 0.00 70 1011.9
20260906004005 84 352 1.0 1.0 0.00 0.00 0.00 69 1011.8
20260906003506 85 352 1.0 1.0 0.00 0.00 0.00 68 1011.8
20260906003008 85 352 1.0 1.0 0.00 0.00 0.00 67 1011.8
20260906002503 85 352 0.0 1.0 0.00 0.00 0.00 67 1011.8
20260906002004 86 352 0.0 1.0 0.00 0.00 0.00 66 1011.7
20260906001517 87 352 0.0 0.0 0.00 0.00 0.00 65 1011.6
20260906001005 87 352 0.0 0.0 0.00 0.00 0.00 64 1011.7
20260906000505 87 352 0.0 1.0 0.00 0.00 0.00 64 1011.8
20260906000034 88 352 0.0 1.0 0.00 0.00 0.00 63 1011.9
20260905235509 88 352 0.0 1.0 0.00 0.00 0.00 62 1011.9
20260905235013 89 352 0.0 1.0 0.00 0.00 0.00 61 1012.0
20260905234513 90 352 0.0 1.0 0.00 0.00 0.00 62 1012.0
20260905234008 90 352 0.0 1.0 0.00 0.00 0.00 58 1012.1
20260905233508 91 352 1.0 1.0 0.00 0.00 0.00 58 1012.0
20260905233014 92 352 1.0 1.0 0.00 0.00 0.00 56 1011.9
20260905232507 92 352 0.0 1.0 0.00 0.00 0.00 55 1012.0
20260905232008 94 352 1.0 1.0 0.00 0.00 0.00 51 1011.9
20260905231510 96 352 0.0 0.0 0.00 0.00 0.00 53 1011.8
20260905231004 96 353 0.0 1.0 0.00 0.00 0.00 49 1011.8
20260905230504 96 353 0.0 1.0 0.00 0.00 0.00 50 1011.9
20260905230015 96 353 0.0 1.0 0.00 0.00 0.00 49 1011.7
20260905225511 96 351 0.0 2.0 0.00 0.00 0.00 48 1011.7
20260905225008 96 351 0.0 2.0 0.00 0.00 0.00 51 1011.7
20260905224517 96 355 1.0 1.0 0.00 0.00 0.00 47 1011.7
20260905224005 96 356 0.0 2.0 0.00 0.00 0.00 47 1011.8
20260905223505 96 343 0.0 3.0 0.00 0.00 0.00 50 1011.9
20260905223016 96 358 1.0 3.0 0.00 0.00 0.00 47 1011.9
20260905222509 96 26 1.0 3.0 0.00 0.00 0.00 50 1012.0
20260905222009 96 30 0.0 2.0 0.00 0.00 0.00 46 1011.9
20260905221516 97 85 1.0 2.0 0.00 0.00 0.00 45 1012.0
20260905221008 96 44 0.0 2.0 0.00 0.00 0.00 46 1012.0
20260905220508 96 325 1.0 3.0 0.00 0.00 0.00 48 1012.0
20260905220013 96 55 1.0 3.0 0.00 0.00 0.00 44 1012.0
20260905215506 96 46 0.0 5.0 0.00 0.00 0.00 47 1012.0
20260905215010 96 349 0.0 5.0 0.00 0.00 0.00 48 1012.1
20260905214519 95 333 1.0 2.0 0.00 0.00 0.00 48 1012.1
20260905214010 95 26 0.0 3.0 0.00 0.00 0.00 49 1012.1
20260905213509 96 26 1.0 3.0 0.00 0.00 0.00 48 1012.1
20260905213015 96 110 1.0 3.0 0.00 0.00 0.00 47 1012.1
20260905212507 95 42 1.0 3.0 0.00 0.00 0.00 47 1012.1
20260905212008 95 300 1.0 4.0 0.00 0.00 0.00 51 1012.2
20260905211516 96 297 1.0 4.0 0.00 0.00 0.00 47 1012.2
20260905211011 97 311 1.0 5.0 0.00 0.00 0.00 46 1012.2
20260905210512 97 151 3.0 5.0 0.00 0.00 0.00 44 1012.1
20260905210018 97 75 1.0 5.0 0.00 0.00 0.00 47 1012.1
20260905205509 97 91 3.0 5.0 0.00 0.00 0.00 45 1012.2
20260905205011 97 118 0.0 5.0 0.00 0.00 0.00 47 1012.3
20260905204510 96 43 2.0 6.0 0.00 0.00 0.00 48 1012.4
20260905204007 96 127 3.0 6.0 0.00 0.00 0.00 46 1012.4
20260905203508 96 79 2.0 3.0 0.00 0.00 0.00 48 1012.5
20260905203019 95 321 1.0 2.0 0.00 0.00 0.00 48 1012.6
20260905202516 95 99 0.0 2.0 0.00 0.00 0.00 54 1012.7
20260905202010 95 99 1.0 3.0 0.00 0.00 0.00 48 1012.8
20260905201518 95 25 1.0 8.0 0.00 0.00 0.00 48 1012.9
20260905201009 97 63 2.0 8.0 0.00 0.00 0.00 48 1012.9
20260905200510 97 335 4.0 8.0 0.00 0.00 0.00 47 1012.9
20260905200027 97 111 2.0 6.0 0.00 0.00 0.00 47 1013.1
20260905195509 97 85 2.0 6.0 0.00 0.00 0.00 46 1013.1
20260905195006 97 124 3.0 6.0 0.00 0.00 0.00 52 1013.2
20260905194508 96 351 2.0 5.0 0.00 0.00 0.00 47 1013.2
20260905194006 96 76 3.0 6.0 0.00 0.00 0.00 49 1013.3
20260905193505 97 61 3.0 8.0 0.00 0.00 0.00 49 1013.4
20260905193011 97 60 3.0 8.0 0.00 0.00 0.00 48 1013.5
20260905192508 97 300 2.0 6.0 0.00 0.00 0.00 47 1013.5
20260905192011 97 217 2.0 6.0 0.00 0.00 0.00 50 1013.6
20260905191519 96 84 2.0 7.0 0.00 0.00 0.00 50 1013.7
20260905191008 96 106 4.0 7.0 0.00 0.00 0.00 49 1013.8
20260905190512 96 58 3.0 6.0 0.00 0.00 0.00 49 1013.8
20260905190024 96 63 2.0 5.0 0.00 0.00 0.00 50 1013.9
20260905185511 96 59 1.0 8.0 0.00 0.00 0.00 51 1014.0
20260905185011 96 351 2.0 8.0 0.00 0.00 0.00 53 1014.0
20260905184542 96 5 2.0 5.0 0.00 0.00 0.00 50 1014.0
20260905184003 96 129 3.0 5.0 0.00 0.00 0.00 51 1014.0
20260905183505 95 8 2.0 6.0 0.00 0.00 0.00 50 1014.1
20260905183029 95 276 1.0 6.0 0.00 0.00 0.00 51 1014.2
20260905182506 95 326 2.0 7.0 0.00 0.00 0.00 51 1014.3
20260905182004 96 9 4.0 7.0 0.00 0.00 0.00 48 1014.2
20260905181516 96 47 2.0 4.0 0.00 0.00 0.00 48 1014.3
20260905181006 96 108 1.0 4.0 0.00 0.00 0.00 52 1014.3
20260905180512 95 359 1.0 6.0 0.00 0.00 0.00 54 1014.4
20260905180021 95 124 3.0 7.0 0.00 0.00 0.00 51 1014.6
20260905175509 95 111 1.0 8.0 0.00 0.00 0.00 52 1014.6
20260905175012 95 86 5.0 8.0 0.00 0.00 0.00 51 1014.6
20260905174526 95 135 3.0 7.0 0.00 0.00 0.00 50 1014.7
20260905174012 94 96 2.0 8.0 0.00 0.00 0.00 51 1014.7
20260905173512 94 117 5.0 8.0 0.00 0.00 0.00 49 1014.7
20260905173025 94 91 4.0 8.0 0.00 0.00 0.00 51 1014.7
20260905172504 94 147 2.0 5.0 0.00 0.00 0.00 49 1014.8
20260905172004 94 88 1.0 6.0 0.00 0.00 0.00 48 1014.9
20260905171509 94 7 3.0 7.0 0.00 0.00 0.00 48 1014.9
20260905171007 94 86 4.0 7.0 0.00 0.00 0.00 49 1015.0
20260905170508 94 342 1.0 3.0 0.00 0.00 0.00 53 1015.0
20260905170017 93 164 1.0 4.0 0.00 0.00 0.00 51 1015.0
20260905165508 93 72 2.0 5.0 0.00 0.00 0.00 54 1015.1
20260905165009 93 76 3.0 5.0 0.00 0.00 0.00 52 1015.2
20260905164525 93 58 3.0 5.0 0.00 0.00 0.00 55 1015.3
20260905164011 92 141 4.0 6.0 0.00 0.00 0.00 54 1015.3
20260905163514 93 102 4.0 6.0 0.00 0.00 0.00 51 1015.3
20260905163028 93 6 1.0 4.0 0.00 0.00 0.00 54 1015.3
20260905162515 93 297 3.0 8.0 0.00 0.00 0.00 55 1015.4
20260905162015 93 110 4.0 8.0 0.00 0.00 0.00 53 1015.5
20260905161524 92 277 1.0 3.0 0.00 0.00 0.00 57 1015.5
20260905161014 92 221 1.0 3.0 0.00 0.00 0.00 56 1015.6
20260905160505 92 105 1.0 4.0 0.00 0.00 0.00 58 1015.7
20260905160009 91 72 2.0 4.0 0.00 0.00 0.00 56 1015.7
20260905155508 91 261 1.0 3.0 0.00 0.00 0.00 57 1015.8
20260905155008 91 184 0.0 6.0 0.00 0.00 0.00 60 1015.8
20260905154517 90 229 1.0 8.0 0.00 0.00 0.00 59 1015.8
20260905154010 90 342 2.0 8.0 0.00 0.00 0.00 62 1015.8
20260905153509 90 336 2.0 6.0 0.00 0.00 0.00 60 1015.8
20260905153024 90 96 1.0 3.0 0.00 0.00 0.00 62 1015.8
20260905152513 90 298 1.0 3.0 0.00 0.00 0.00 61 1015.8
20260905152014 89 109 1.0 4.0 0.00 0.00 0.00 63 1015.8
20260905151530 89 263 2.0 4.0 0.00 0.00 0.00 62 1015.8
20260905151017 88 359 1.0 4.0 0.00 0.00 0.00 63 1015.8
20260905150521 88 292 2.0 4.0 0.00 0.00 0.00 65 1015.7
20260905150027 88 338 2.0 4.0 0.00 0.00 0.00 63 1015.8
20260905145516 88 299 1.0 3.0 0.00 0.00 0.00 64 1015.8
20260905145003 87 72 1.0 3.0 0.00 0.00 0.00 65 1015.9
20260905144510 87 1 2.0 3.0 0.00 0.00 0.00 70 1015.9
20260905144008 86 103 1.0 3.0 0.00 0.00 0.00 65 1015.9
20260905143512 86 97 1.0 3.0 0.00 0.00 0.00 67 1016.0
20260905143019 86 82 1.0 3.0 0.00 0.00 0.00 68 1016.0
20260905142512 85 347 1.0 3.0 0.00 0.00 0.00 67 1015.9
20260905142010 85 330 0.0 3.0 0.00 0.00 0.00 71 1015.9
20260905141528 85 25 1.0 3.0 0.00 0.00 0.00 69 1015.8
20260905141015 84 94 1.0 3.0 0.00 0.00 0.00 72 1016.0
20260905140514 84 77 1.0 3.0 0.00 0.00 0.00 72 1016.0
20260905140031 83 75 1.0 3.0 0.00 0.00 0.00 74 1016.0
20260905135516 83 90 2.0 3.0 0.00 0.00 0.00 74 1016.1
20260905135015 82 96 1.0 3.0 0.00 0.00 0.00 73 1016.0
20260905134526 82 102 1.0 2.0 0.00 0.00 0.00 74 1016.0
20260905134014 81 97 1.0 2.0 0.00 0.00 0.00 76 1016.0
20260905133506 81 117 1.0 2.0 0.00 0.00 0.00 75 1016.0
20260905133033 82 118 1.0 1.0 0.00 0.00 0.00 76 1016.0
20260905132511 81 113 0.0 1.0 0.00 0.00 0.00 76 1015.9
20260905132010 80 113 0.0 1.0 0.00 0.00 0.00 76 1015.8
20260905131524 80 113 1.0 1.0 0.00 0.00 0.00 76 1015.9
20260905131012 81 95 1.0 1.0 0.00 0.00 0.00 77 1016.0
20260905130514 81 1 0.0 1.0 0.00 0.00 0.00 77 1016.0
20260905130029 80 1 0.0 1.0 0.00 0.00 0.00 78 1016.1
20260905125515 79 1 0.0 1.0 0.00 0.00 0.00 81 1016.1
20260905125016 78 1 0.0 1.0 0.00 0.00 0.00 83 1016.1
20260905124531 77 1 0.0 1.0 0.00 0.00 0.00 85 1016.1
20260905124019 76 1 0.0 0.0 0.00 0.00 0.00 88 1016.0
20260905123516 75 1 0.0 0.0 0.00 0.00 0.00 88 1015.9
20260905123031 74 1 0.0 0.0 0.00 0.00 0.00 89 1015.8
20260905122517 74 1 0.0 1.0 0.00 0.00 0.00 90 1015.8
20260905122010 73 1 0.0 1.0 0.00 0.00 0.00 90 1015.8
20260905121515 73 1 0.0 1.0 0.00 0.00 0.00 90 1015.8
20260905121012 72 1 0.0 0.0 0.00 0.00 0.00 90 1015.7
20260905120512 72 1 0.0 0.0 0.00 0.00 0.00 90 1015.7